Weather Roundup
Issued by NWS Chicago, IL

Home | Current Version | Previous Version | Graphics & Text | Print | Product List | Glossary On
Versions: 1 2 3 4 5 6 7 8 9 10 11 12 13 14 15 16 17 18 19 20 21 22 23 24 25 26 27 28 29 30 31 32 33 34 35 36 37 38 39 40 41 42 43 44 45 46 47 48 49 50
000
NZUS59 KLOT 302306
HRRLOT

CHICAGO AREA WEATHER ROUNDUP
NATIONAL WEATHER SERVICE CHICAGO/ROMEOVILLE IL
600 PM CDT TUE SEP 30 2014

NOTE: "FAIR" INDICATES FEW OR NO CLOUDS BELOW 12,000 FEET WITH NO
SIGNIFICANT WEATHER AND/OR OBSTRUCTIONS TO VISIBILITY.

* THESE STATIONS ARE NOT UNDER NWS QUALITY CONTROL. THEY ALSO MAY NOT
  REPORT WEATHER SUCH AS PRECIPITATION OR FOG.

ILZ005-006-012>014-019>023-010000-
NORTHEAST ILLINOIS

CITY           SKY/WX    TMP DP  RH WIND       PRES   REMARKS
OHARE          CLOUDY    53  48  83 NE9       30.01S
MIDWAY         MOCLDY    57  50  77 NE10      30.01R
AURORA         MOCLDY    56  45  66 E7        30.02R
LANSING*       CLOUDY    56  48  73 NE7       30.01S
JOLIET*        CLOUDY    55  47  74 NE5       30.01R
WAUKEGAN       CLOUDY    52  48  86 N6        30.02
DUPAGE AIRPORT CLOUDY    55  45  68 NE9       30.01R
WHEELING       CLOUDY    55  48  77 NE7       30.03R
KANKAKEE*      MOCLDY    56  48  74 N7        30.01R
MORRIS*        MOCLDY    57  49  72 NE6       30.00R
LEWIS AIRPORT* CLOUDY    55  46  72 NE10      30.01S
NORTHERLY IS     N/A     54  51  90 NE12        N/A
$$

WIZ051-052-058>065-066-070>072-010000-
SOUTHEAST WISCONSIN

CITY           SKY/WX    TMP DP  RH WIND       PRES   REMARKS
MILWAUKEE      CLOUDY    52  46  80 NE14      30.04R
KENOSHA*       CLOUDY    53  48  83 N7        30.03S
RACINE*        CLOUDY    53  48  83 N7        30.04S
BURLINGTON     CLOUDY    51  44  77 E6        30.03R
WAUKESHA       CLOUDY    48  43  81 E8        30.04R
WEST BEND      CLOUDY    48  41  76 E9        30.04S
$$

INZ001>003-010>013-019-020-010000-
NORTHWEST INDIANA

CITY           SKY/WX    TMP DP  RH WIND       PRES   REMARKS
GARY*          CLOUDY    57  48  72 N17       30.01S
MICHIGAN CITY* NOT AVBL
RENSSELAER*    NOT AVBL
VALPARAISO     CLOUDY    54  46  74 VRB3      30.01R
$$

LMZ740>746-010000-
SOUTHERN LAKE MICHIGAN

STATION/POSITION TIME  SKY/WX   TEMP WIND        PRES    VSBY
                                AIR  DIR/SP/G
                 (UTC)          (F)  (DEG/KT/KT) (MB)    (MI)
HARRISON CRIB    2300            55   30/ 16/ 18   N/A
BURNHAM HARBOR   2300            55   40/ 15       N/A
CALUMET HARBOR   2200            55  360/  7/  9 1015.0R
BURNS HARBOR     NOT AVBL
MICHIGAN CITY    2300            54  360/ 11/ 14   N/A
$$

ABBREVIATIONS USED IN REMARKS
   TC - TEMPERATURE IN CELSIUS
  WCI - WIND CHILL INDEX
   HX - HEAT INDEX
  VSB - VISIBILITY
$$


USA.gov is the U.S. government's official web portal to all federal, state and local government web resources and services.